Change the Weather History Date:

Thursday, November 14, 2013

  Actual Average (KGAF) Record (KGAF)
Temperature  
Mean Temperature 37 °F -  
Max Temperature 42 °F 35 °F 63 °F (1953)
Min Temperature 32 °F 18 °F -9 °F (1959)
Degree Days  
Heating Degree Days 28    
Moisture  
Dew Point 33 °F    
Average Humidity 86    
Maximum Humidity 100    
Minimum Humidity 70    
Precipitation  
Precipitation 0.00 in - - ()
Sea Level Pressure  
Sea Level Pressure 29.75 in    
Wind  
Wind Speed 7 mph (WNW)    
Max Wind Speed 13 mph    
Max Gust Speed 17 mph    
Visibility 9 miles    
Events Rain , Snow    
Averages and records for this station are not official NWS values.
T = Trace of Precipitation, MM = Missing Value Source: NWS Daily Summary

Daily Weather History Graph

Daily Weather History Graph

Search for Another Location

Airport or City:

Trip Planner

Search our weather history database for the weather conditions in past years. The results will help you decide how hot, cold, wet, or windy it might be!

Date:

Astronomy

Nov. 14, 2013 Rise Set
Actual Time 7:38 AM CST 4:51 PM CST
Civil Twilight 7:03 AM CST 5:25 PM CST
Nautical Twilight 6:25 AM CST 6:03 PM CST
Astronomical Twilight 5:48 AM CST 6:41 PM CST
Moon 3:24 PM CST (11/14) 4:21 AM CST (11/14)
Length of Visible Light 10h 21m
Length of Day
9h 12m
Waxing Gibbous, 92% of the Moon is Illuminated
Nov 14
Waxing Gibbous
Nov 17
Full
Nov 25
Last Quarter
Dec 2
New
Dec 9
First Quarter

Hourly Weather History & Observations

Time (CST) Temp. Windchill Dew Point Humidity Pressure Visibility Wind Dir Wind Speed Gust Speed Precip Events Conditions
12:15 AM 37.4 °F 32.1 °F 28.4 °F 70% 29.79 in 10.0 mi West 6.9 mph - N/A   Clear
12:35 AM 37.4 °F 31.4 °F 30.2 °F 75% 29.79 in 10.0 mi West 8.1 mph - N/A   Partly Cloudy
12:55 AM 37.4 °F 30.3 °F 30.2 °F 75% 29.78 in 10.0 mi West 10.4 mph - N/A   Mostly Cloudy
1:15 AM 39.2 °F 33.6 °F 30.2 °F 70% 29.78 in 10.0 mi WNW 8.1 mph - N/A   Mostly Cloudy
1:35 AM 39.2 °F 33.6 °F 32.0 °F 75% 29.78 in 10.0 mi NW 8.1 mph - N/A   Scattered Clouds
1:55 AM 39.2 °F 33.6 °F 30.2 °F 70% 29.78 in 10.0 mi North 8.1 mph - N/A   Clear
2:15 AM 37.4 °F 30.8 °F 32.0 °F 81% 29.78 in 10.0 mi North 9.2 mph - N/A   Clear
2:35 AM 35.6 °F 28.0 °F 30.2 °F 81% 29.78 in 10.0 mi North 10.4 mph - N/A   Mostly Cloudy
2:55 AM 35.6 °F 27.5 °F 30.2 °F 81% 29.79 in 10.0 mi North 11.5 mph - N/A   Scattered Clouds
3:15 AM 33.8 °F 27.0 °F 30.2 °F 87% 29.79 in 10.0 mi North 8.1 mph - N/A   Partly Cloudy
3:35 AM 33.8 °F 27.7 °F 30.2 °F 87% 29.80 in 10.0 mi NNW 6.9 mph - N/A   Partly Cloudy
3:55 AM 32.0 °F 27.5 °F 30.2 °F 93% 29.81 in 10.0 mi NW 4.6 mph - N/A   Mostly Cloudy
4:15 AM 33.8 °F 29.6 °F 32.0 °F 93% 29.81 in 10.0 mi WNW 4.6 mph - N/A   Overcast
4:35 AM 33.8 °F 30.8 °F 30.2 °F 87% 29.81 in 10.0 mi West 3.5 mph - N/A   Overcast
4:55 AM 32.0 °F - 32.0 °F 100% 29.80 in 3.0 mi Calm Calm - N/A Rain Light Rain
5:15 AM 32.0 °F - 32.0 °F 100% 29.80 in 5.0 mi Calm Calm - N/A Rain Light Rain
5:35 AM 32.0 °F 28.7 °F 32.0 °F 100% 29.81 in 7.0 mi WNW 3.5 mph - N/A   Overcast
5:55 AM 32.0 °F 27.5 °F 32.0 °F 100% 29.82 in 4.0 mi NW 4.6 mph - N/A Snow Light Snow
6:15 AM 32.0 °F 28.7 °F 32.0 °F 100% 29.81 in 8.0 mi NW 3.5 mph - N/A   Overcast
6:35 AM 32.0 °F 26.4 °F 32.0 °F 100% 29.82 in 7.0 mi West 5.8 mph - N/A   Overcast
6:55 AM 32.0 °F 27.5 °F 32.0 °F 100% 29.82 in 7.0 mi West 4.6 mph - N/A   Overcast
7:15 AM 32.0 °F 26.4 °F 32.0 °F 100% 29.82 in 8.0 mi West 5.8 mph - N/A   Overcast
7:35 AM 32.0 °F 26.4 °F 32.0 °F 100% 29.82 in 5.0 mi West 5.8 mph - N/A   Overcast
7:55 AM 33.8 °F 28.6 °F 32.0 °F 93% 29.82 in 5.0 mi WSW 5.8 mph - N/A   Overcast
8:15 AM 33.8 °F 29.6 °F 32.0 °F 93% 29.81 in 7.0 mi WSW 4.6 mph - N/A   Overcast
8:35 AM 33.8 °F 28.6 °F 32.0 °F 93% 29.81 in 8.0 mi SW 5.8 mph - N/A   Overcast
8:55 AM 33.8 °F 29.6 °F 32.0 °F 93% 29.81 in 9.0 mi SW 4.6 mph - N/A   Overcast
9:15 AM 35.6 °F 30.7 °F 32.0 °F 87% 29.80 in 8.0 mi SSW 5.8 mph - N/A   Overcast
9:35 AM 35.6 °F 29.9 °F 33.8 °F 93% 29.80 in 8.0 mi SW 6.9 mph - N/A   Overcast
9:55 AM 37.4 °F 30.8 °F 32.0 °F 81% 29.80 in 10.0 mi West 9.2 mph - N/A   Overcast
10:15 AM 37.4 °F 30.8 °F 33.8 °F 87% 29.80 in 10.0 mi West 9.2 mph - N/A   Overcast
10:35 AM 37.4 °F 32.1 °F 32.0 °F 81% 29.79 in 10.0 mi WSW 6.9 mph - N/A   Overcast
10:55 AM 39.2 °F 32.5 °F 32.0 °F 75% 29.79 in 10.0 mi West 10.4 mph - N/A   Overcast
11:15 AM 39.2 °F 32.5 °F 32.0 °F 75% 29.78 in 10.0 mi West 10.4 mph - N/A   Mostly Cloudy
11:35 AM 39.2 °F 34.2 °F 32.0 °F 75% 29.77 in 10.0 mi SW 6.9 mph - N/A   Mostly Cloudy
11:55 AM 41.0 °F 33.9 °F 32.0 °F 70% 29.76 in 10.0 mi West 12.7 mph 17.3 mph N/A   Mostly Cloudy
12:15 PM 41.0 °F 34.3 °F 32.0 °F 70% 29.75 in 10.0 mi West 11.5 mph - N/A   Overcast
12:35 PM 39.2 °F 35.0 °F 32.0 °F 75% 29.74 in 10.0 mi WSW 5.8 mph - N/A   Overcast
12:55 PM 39.2 °F 34.2 °F 32.0 °F 75% 29.73 in 10.0 mi SW 6.9 mph - N/A   Overcast
1:15 PM 41.0 °F 37.1 °F 32.0 °F 70% 29.72 in 10.0 mi SW 5.8 mph - N/A   Overcast
1:35 PM 39.2 °F 33.0 °F 33.8 °F 81% 29.71 in 10.0 mi SSW 9.2 mph - N/A   Overcast
1:55 PM 39.2 °F 34.2 °F 33.8 °F 81% 29.71 in 10.0 mi SSW 6.9 mph - N/A   Overcast
2:15 PM 39.2 °F 33.0 °F 35.6 °F 87% 29.70 in 10.0 mi SSW 9.2 mph - N/A   Overcast
2:35 PM 41.0 °F 35.8 °F 35.6 °F 81% 29.69 in 9.0 mi SW 8.1 mph - N/A   Overcast
2:55 PM 41.0 °F 35.8 °F 35.6 °F 81% 29.69 in 9.0 mi SW 8.1 mph - N/A   Overcast
3:15 PM 41.0 °F 37.1 °F 37.4 °F 87% 29.68 in 3.0 mi SW 5.8 mph - N/A   Overcast
3:35 PM 41.0 °F 35.8 °F 37.4 °F 87% 29.68 in 5.0 mi West 8.1 mph - N/A   Overcast
3:55 PM 42.8 °F 37.5 °F 37.4 °F 81% 29.68 in 8.0 mi WSW 9.2 mph - N/A   Overcast
4:15 PM 42.8 °F 38.0 °F 39.2 °F 87% 29.68 in 9.0 mi WSW 8.1 mph - N/A   Overcast
4:35 PM 42.8 °F 37.5 °F 37.4 °F 81% 29.68 in 10.0 mi West 9.2 mph - N/A   Overcast
4:55 PM 42.8 °F 37.0 °F 37.4 °F 81% 29.69 in 7.0 mi West 10.4 mph - N/A   Overcast
5:15 PM 42.8 °F 37.5 °F 37.4 °F 81% 29.69 in 8.0 mi West 9.2 mph - N/A   Overcast
5:35 PM 41.0 °F 35.2 °F 37.4 °F 87% 29.69 in 9.0 mi WNW 9.2 mph - N/A   Overcast
5:55 PM 41.0 °F 34.7 °F 37.4 °F 87% 29.69 in 9.0 mi NNW 10.4 mph - N/A   Overcast
6:15 PM 39.2 °F 33.0 °F 37.4 °F 93% 29.69 in 7.0 mi NW 9.2 mph - N/A   Overcast
6:35 PM 39.2 °F 34.2 °F 37.4 °F 93% 29.69 in 10.0 mi NW 6.9 mph - N/A   Overcast
6:55 PM 39.2 °F 35.0 °F 37.4 °F 93% 29.70 in 10.0 mi NW 5.8 mph - N/A   Overcast
7:15 PM 39.2 °F 35.0 °F 37.4 °F 93% 29.70 in 8.0 mi West 5.8 mph - N/A   Overcast
7:35 PM 39.2 °F 35.0 °F 37.4 °F 93% 29.70 in 7.0 mi West 5.8 mph - N/A   Overcast
7:55 PM 39.2 °F 34.2 °F 35.6 °F 87% 29.70 in 7.0 mi WNW 6.9 mph - N/A   Overcast
8:15 PM 39.2 °F 34.2 °F 35.6 °F 87% 29.71 in 9.0 mi WNW 6.9 mph - N/A   Overcast
8:35 PM 39.2 °F 35.0 °F 35.6 °F 87% 29.71 in 10.0 mi WNW 5.8 mph - N/A   Overcast
8:55 PM 37.4 °F 29.3 °F 35.6 °F 93% 29.71 in 9.0 mi North 12.7 mph - N/A   Overcast
9:15 PM 35.6 °F 27.5 °F 32.0 °F 87% 29.72 in 10.0 mi NNW 11.5 mph - N/A   Overcast
9:35 PM 35.6 °F 28.6 °F 32.0 °F 87% 29.72 in 9.0 mi NNW 9.2 mph - N/A   Mostly Cloudy
9:55 PM 35.6 °F 29.2 °F 32.0 °F 87% 29.73 in 9.0 mi NNW 8.1 mph - N/A   Mostly Cloudy
10:15 PM 33.8 °F 27.7 °F 32.0 °F 93% 29.73 in 9.0 mi NNW 6.9 mph - N/A   Mostly Cloudy
10:35 PM 33.8 °F 28.6 °F 32.0 °F 93% 29.73 in 7.0 mi NNW 5.8 mph - N/A   Overcast
10:55 PM 33.8 °F 29.6 °F 32.0 °F 93% 29.73 in 8.0 mi NNW 4.6 mph - N/A   Overcast
11:15 PM 35.6 °F 29.9 °F 32.0 °F 87% 29.73 in 10.0 mi NW 6.9 mph - N/A   Overcast
11:35 PM 35.6 °F 30.7 °F 32.0 °F 87% 29.74 in 10.0 mi WNW 5.8 mph - N/A   Overcast
11:55 PM 35.6 °F 30.7 °F 32.0 °F 87% 29.74 in 10.0 mi WNW 5.8 mph - N/A   Overcast